Time,TemperatureF,DewpointF,PressureIn,WindDirection,WindDirectionDegrees,WindSpeedMPH,WindSpeedGustMPH,Humidity,HourlyPrecipIn,Conditions,Clouds,dailyrainin,SoftwareType,DateUTC
2013-09-28 00:08:00,80.0,77.0,29.84,SSE,147,4.0,14.0,89,0.00,,,0.00,weatherlink.com 1.10,2013-09-28 05:08:00,
2013-09-28 00:23:00,80.0,77.0,29.84,SE,143,5.0,14.0,89,0.00,,,0.00,weatherlink.com 1.10,2013-09-28 05:23:00,
2013-09-28 00:38:00,79.9,77.0,29.85,SSE,154,4.0,10.0,90,0.00,,,0.00,weatherlink.com 1.10,2013-09-28 05:38:00,
2013-09-28 00:53:00,79.9,77.0,29.85,SE,139,7.0,11.0,90,0.00,,,0.00,weatherlink.com 1.10,2013-09-28 05:53:00,
2013-09-28 01:08:00,80.0,77.0,29.85,SSE,167,5.0,13.0,90,0.00,,,0.00,weatherlink.com 1.10,2013-09-28 06:08:00,
2013-09-28 01:23:00,79.9,77.0,29.85,SSE,151,3.0,11.0,90,0.00,,,0.00,weatherlink.com 1.10,2013-09-28 06:23:00,
2013-09-28 01:38:00,79.9,77.0,29.86,SSE,162,3.0,10.0,90,0.00,,,0.00,weatherlink.com 1.10,2013-09-28 06:38:00,
2013-09-28 01:54:00,79.8,76.0,29.85,SSE,152,6.0,10.0,89,0.00,,,0.00,weatherlink.com 1.10,2013-09-28 06:54:00,
2013-09-28 02:09:00,79.7,77.0,29.85,SE,139,3.0,8.0,90,0.00,,,0.00,weatherlink.com 1.10,2013-09-28 07:09:00,
2013-09-28 02:24:00,79.5,76.0,29.85,SSE,149,2.0,10.0,90,0.00,,,0.00,weatherlink.com 1.10,2013-09-28 07:24:00,
2013-09-28 02:39:00,79.3,77.0,29.85,SSE,155,3.0,6.0,91,0.00,,,0.00,weatherlink.com 1.10,2013-09-28 07:39:00,
2013-09-28 02:54:00,79.2,76.0,29.85,SE,124,10.0,10.0,91,0.00,,,0.00,weatherlink.com 1.10,2013-09-28 07:54:00,
2013-09-28 03:09:00,79.2,76.0,29.84,SSW,193,4.0,7.0,91,0.00,,,0.00,weatherlink.com 1.10,2013-09-28 08:09:00,
2013-09-28 03:24:00,79.0,77.0,29.84,SSE,160,2.0,6.0,92,0.09,,,0.09,weatherlink.com 1.10,2013-09-28 08:24:00,
2013-09-28 03:39:00,78.8,77.0,29.84,South,169,3.0,6.0,93,0.10,,,0.10,weatherlink.com 1.10,2013-09-28 08:39:00,
2013-09-28 03:54:00,78.6,77.0,29.84,SSE,153,2.0,9.0,93,0.10,,,0.10,weatherlink.com 1.10,2013-09-28 08:54:00,
2013-09-28 04:09:00,78.5,77.0,29.84,SSE,160,2.0,7.0,94,0.10,,,0.10,weatherlink.com 1.10,2013-09-28 09:09:00,
2013-09-28 04:24:00,78.4,77.0,29.84,SSE,168,5.0,11.0,94,0.01,,,0.10,weatherlink.com 1.10,2013-09-28 09:24:00,
2013-09-28 04:39:00,78.5,77.0,29.84,SSE,152,6.0,9.0,94,0.00,,,0.10,weatherlink.com 1.10,2013-09-28 09:39:00,
2013-09-28 04:54:00,78.5,77.0,29.84,SSE,163,5.0,10.0,94,0.00,,,0.10,weatherlink.com 1.10,2013-09-28 09:54:00,
2013-09-28 05:09:00,78.5,77.0,29.84,SE,135,6.0,10.0,94,0.00,,,0.10,weatherlink.com 1.10,2013-09-28 10:09:00,
2013-09-28 05:24:00,78.5,77.0,29.84,SSE,160,8.0,11.0,94,0.00,,,0.10,weatherlink.com 1.10,2013-09-28 10:24:00,
2013-09-28 05:39:00,78.6,77.0,29.84,SW,217,6.0,8.0,94,0.00,,,0.10,weatherlink.com 1.10,2013-09-28 10:39:00,
2013-09-28 05:54:00,78.6,77.0,29.84,SE,142,2.0,11.0,94,0.00,,,0.10,weatherlink.com 1.10,2013-09-28 10:54:00,
2013-09-28 06:09:00,78.4,77.0,29.85,SSE,166,5.0,8.0,94,0.00,,,0.10,weatherlink.com 1.10,2013-09-28 11:09:00,
2013-09-28 06:24:00,78.2,76.0,29.84,SSE,148,3.0,8.0,94,0.00,,,0.10,weatherlink.com 1.10,2013-09-28 11:24:00,
2013-09-28 06:39:00,78.0,76.0,29.85,SE,139,5.0,8.0,94,0.00,,,0.10,weatherlink.com 1.10,2013-09-28 11:39:00,
2013-09-28 06:54:00,77.8,76.0,29.86,SSE,152,7.0,11.0,95,0.00,,,0.10,weatherlink.com 1.10,2013-09-28 11:54:00,
2013-09-28 07:09:00,77.8,76.0,29.86,SE,139,3.0,7.0,95,0.00,,,0.10,weatherlink.com 1.10,2013-09-28 12:09:00,
2013-09-28 07:24:00,77.9,76.0,29.87,SSE,150,4.0,8.0,95,0.00,,,0.10,weatherlink.com 1.10,2013-09-28 12:24:00,
2013-09-28 07:39:00,77.9,76.0,29.87,SSE,160,1.0,8.0,95,0.00,,,0.10,weatherlink.com 1.10,2013-09-28 12:39:00,
2013-09-28 07:54:00,78.1,77.0,29.87,SSE,153,5.0,7.0,96,0.00,,,0.10,weatherlink.com 1.10,2013-09-28 12:54:00,
2013-09-28 08:09:00,78.3,77.0,29.88,SSE,165,4.0,8.0,96,0.00,,,0.10,weatherlink.com 1.10,2013-09-28 13:09:00,
2013-09-28 08:24:00,78.5,77.0,29.88,SE,131,4.0,7.0,96,0.00,,,0.10,weatherlink.com 1.10,2013-09-28 13:24:00,
2013-09-28 08:39:00,78.7,77.0,29.88,SE,143,5.0,10.0,95,0.00,,,0.10,weatherlink.com 1.10,2013-09-28 13:39:00,
2013-09-28 08:54:00,79.5,78.0,29.89,SSE,152,4.0,9.0,94,0.00,,,0.10,weatherlink.com 1.10,2013-09-28 13:54:00,
2013-09-28 09:09:00,79.9,77.0,29.89,SSE,159,2.0,9.0,92,0.00,,,0.10,weatherlink.com 1.10,2013-09-28 14:09:00,
2013-09-28 09:24:00,80.5,78.0,29.90,SSE,156,7.0,10.0,91,0.00,,,0.10,weatherlink.com 1.10,2013-09-28 14:24:00,
2013-09-28 09:39:00,80.6,78.0,29.90,South,181,5.0,13.0,90,0.00,,,0.10,weatherlink.com 1.10,2013-09-28 14:39:00,
2013-09-28 09:54:00,81.1,77.0,29.91,SE,142,4.0,10.0,88,0.00,,,0.10,weatherlink.com 1.10,2013-09-28 14:54:00,
2013-09-28 10:09:00,82.1,78.0,29.91,SW,221,5.0,12.0,87,0.00,,,0.10,weatherlink.com 1.10,2013-09-28 15:09:00,
2013-09-28 10:24:00,83.9,78.0,29.91,SSE,165,7.0,15.0,83,0.00,,,0.10,weatherlink.com 1.10,2013-09-28 15:24:00,
2013-09-28 10:39:00,84.4,78.0,29.91,SSW,193,3.0,11.0,81,0.00,,,0.10,weatherlink.com 1.10,2013-09-28 15:39:00,
2013-09-28 10:54:00,83.2,77.0,29.91,SW,235,2.0,9.0,82,0.00,,,0.10,weatherlink.com 1.10,2013-09-28 15:54:00,
2013-09-28 11:09:00,84.1,78.0,29.91,SSE,150,6.0,10.0,81,0.00,,,0.10,weatherlink.com 1.10,2013-09-28 16:09:00,
2013-09-28 11:24:00,84.3,78.0,29.91,SW,233,2.0,10.0,81,0.00,,,0.10,weatherlink.com 1.10,2013-09-28 16:24:00,
2013-09-28 11:40:00,85.7,78.0,29.91,SE,146,7.0,14.0,77,0.00,,,0.10,weatherlink.com 1.10,2013-09-28 16:40:00,
2013-09-28 11:55:00,85.6,78.0,29.91,East,89,5.0,12.0,77,0.00,,,0.10,weatherlink.com 1.10,2013-09-28 16:55:00,
2013-09-28 12:10:00,85.8,77.0,29.90,SSE,158,3.0,10.0,76,0.00,,,0.10,weatherlink.com 1.10,2013-09-28 17:10:00,
2013-09-28 12:25:00,86.2,78.0,29.90,South,173,8.0,8.0,77,0.00,,,0.10,weatherlink.com 1.10,2013-09-28 17:25:00,
2013-09-28 12:40:00,86.1,77.0,29.90,SW,233,6.0,8.0,75,0.00,,,0.10,weatherlink.com 1.10,2013-09-28 17:40:00,
2013-09-28 12:55:00,87.0,76.0,29.89,SSW,193,8.0,12.0,70,0.00,,,0.10,weatherlink.com 1.10,2013-09-28 17:55:00,
2013-09-28 13:10:00,89.3,77.0,29.89,SSE,168,2.0,10.0,68,0.00,,,0.10,weatherlink.com 1.10,2013-09-28 18:10:00,
2013-09-28 13:25:00,89.4,77.0,29.88,SSE,154,5.0,13.0,66,0.00,,,0.10,weatherlink.com 1.10,2013-09-28 18:25:00,
2013-09-28 13:40:00,89.5,76.0,29.87,SE,140,5.0,11.0,65,0.00,,,0.10,weatherlink.com 1.10,2013-09-28 18:40:00,
2013-09-28 13:55:00,90.0,76.0,29.87,SE,124,8.0,15.0,64,0.00,,,0.10,weatherlink.com 1.10,2013-09-28 18:55:00,
2013-09-28 14:10:00,88.8,76.0,29.87,SSE,148,9.0,19.0,65,0.00,,,0.10,weatherlink.com 1.10,2013-09-28 19:10:00,
2013-09-28 14:25:00,88.4,75.0,29.86,SE,145,4.0,8.0,65,0.00,,,0.10,weatherlink.com 1.10,2013-09-28 19:25:00,
2013-09-28 14:40:00,90.7,77.0,29.84,South,172,9.0,10.0,64,0.00,,,0.10,weatherlink.com 1.10,2013-09-28 19:40:00,
2013-09-28 14:55:00,91.1,77.0,29.84,SSW,200,1.0,13.0,63,0.00,,,0.10,weatherlink.com 1.10,2013-09-28 19:55:00,
2013-09-28 15:10:00,91.7,77.0,29.83,SE,145,6.0,9.0,62,0.00,,,0.10,weatherlink.com 1.10,2013-09-28 20:10:00,
2013-09-28 15:25:00,90.5,76.0,29.83,SSE,162,4.0,14.0,63,0.00,,,0.10,weatherlink.com 1.10,2013-09-28 20:25:00,
2013-09-28 15:40:00,90.7,76.0,29.82,ESE,118,6.0,7.0,63,0.00,,,0.10,weatherlink.com 1.10,2013-09-28 20:40:00,
2013-09-28 15:55:00,90.8,74.0,29.82,SSE,153,4.0,8.0,59,0.00,,,0.10,weatherlink.com 1.10,2013-09-28 20:55:00,
2013-09-28 16:10:00,91.4,75.0,29.82,South,170,5.0,8.0,58,0.00,,,0.10,weatherlink.com 1.10,2013-09-28 21:10:00,
2013-09-28 16:25:00,91.3,73.0,29.82,SE,144,6.0,11.0,55,0.00,,,0.10,weatherlink.com 1.10,2013-09-28 21:25:00,
2013-09-28 16:40:00,91.1,74.0,29.82,SSW,202,4.0,8.0,57,0.00,,,0.10,weatherlink.com 1.10,2013-09-28 21:40:00,
2013-09-28 16:55:00,90.8,75.0,29.81,SE,128,0.0,3.0,60,0.00,,,0.10,weatherlink.com 1.10,2013-09-28 21:55:00,
2013-09-28 17:10:00,90.8,75.0,29.81,ESE,110,0.0,5.0,60,0.00,,,0.10,weatherlink.com 1.10,2013-09-28 22:10:00,
2013-09-28 17:25:00,90.4,74.0,29.80,SSE,155,2.0,4.0,59,0.00,,,0.10,weatherlink.com 1.10,2013-09-28 22:25:00,
2013-09-28 17:40:00,89.7,74.0,29.81,SE,134,0.0,3.0,61,0.00,,,0.10,weatherlink.com 1.10,2013-09-28 22:40:00,
2013-09-28 17:55:00,89.1,73.0,29.82,SSE,158,2.0,5.0,60,0.00,,,0.10,weatherlink.com 1.10,2013-09-28 22:55:00,
2013-09-28 18:10:00,86.4,77.0,29.82,WSW,239,1.0,2.0,73,0.00,,,0.10,weatherlink.com 1.10,2013-09-28 23:10:00,
2013-09-28 18:25:00,83.3,75.0,29.82,NNW,336,6.0,10.0,76,0.00,,,0.10,weatherlink.com 1.10,2013-09-28 23:25:00,
2013-09-28 18:40:00,81.6,75.0,29.84,ENE,73,4.0,8.0,81,0.00,,,0.10,weatherlink.com 1.10,2013-09-28 23:40:00,
2013-09-28 18:55:00,80.9,75.0,29.86,SSW,210,7.0,10.0,83,0.12,,,0.22,weatherlink.com 1.10,2013-09-28 23:55:00,
2013-09-28 19:10:00,80.0,75.0,29.85,North,359,1.0,5.0,84,0.25,,,0.35,weatherlink.com 1.10,2013-09-29 00:10:00,
2013-09-28 19:25:00,78.6,75.0,29.85,North,349,2.0,3.0,89,0.36,,,0.46,weatherlink.com 1.10,2013-09-29 00:25:00,
2013-09-28 19:40:00,77.1,75.0,29.86,NNE,26,4.0,4.0,93,0.60,,,0.70,weatherlink.com 1.10,2013-09-29 00:40:00,
2013-09-28 19:55:00,76.7,75.0,29.87,SSE,158,1.0,5.0,95,0.49,,,0.73,weatherlink.com 1.10,2013-09-29 00:55:00,
2013-09-28 20:10:00,76.6,75.0,29.89,SE,131,0.0,0.0,96,0.39,,,0.74,weatherlink.com 1.10,2013-09-29 01:10:00,
2013-09-28 20:25:00,76.6,75.0,29.89,East,101,4.0,5.0,96,0.30,,,0.77,weatherlink.com 1.10,2013-09-29 01:25:00,
2013-09-28 20:40:00,76.7,76.0,29.90,East,82,4.0,5.0,97,0.09,,,0.79,weatherlink.com 1.10,2013-09-29 01:40:00,
2013-09-28 20:55:00,75.9,75.0,29.91,East,79,3.0,6.0,96,0.06,,,0.79,weatherlink.com 1.10,2013-09-29 01:55:00,
2013-09-28 21:10:00,75.5,74.0,29.91,East,94,4.0,6.0,96,0.05,,,0.79,weatherlink.com 1.10,2013-09-29 02:10:00,
2013-09-28 21:26:00,75.0,74.0,29.91,East,79,6.0,8.0,96,0.02,,,0.79,weatherlink.com 1.10,2013-09-29 02:26:00,
2013-09-28 21:41:00,74.3,73.0,29.91,ESE,103,3.0,7.0,96,0.00,,,0.79,weatherlink.com 1.10,2013-09-29 02:41:00,
2013-09-28 21:56:00,74.6,74.0,29.92,ENE,72,2.0,2.0,97,0.00,,,0.79,weatherlink.com 1.10,2013-09-29 02:56:00,
2013-09-28 22:11:00,74.8,74.0,29.93,ENE,77,5.0,5.0,97,0.00,,,0.79,weatherlink.com 1.10,2013-09-29 03:11:00,
2013-09-28 22:26:00,74.8,74.0,29.93,East,85,3.0,4.0,97,0.01,,,0.80,weatherlink.com 1.10,2013-09-29 03:26:00,
2013-09-28 22:41:00,74.7,74.0,29.93,East,85,2.0,4.0,97,0.01,,,0.80,weatherlink.com 1.10,2013-09-29 03:41:00,
2013-09-28 22:56:00,74.5,74.0,29.92,ESE,104,0.0,4.0,97,0.01,,,0.80,weatherlink.com 1.10,2013-09-29 03:56:00,
2013-09-28 23:11:00,74.6,74.0,29.92,SSE,167,1.0,1.0,97,0.01,,,0.80,weatherlink.com 1.10,2013-09-29 04:11:00,
2013-09-28 23:26:00,74.7,74.0,29.92,SSE,160,0.0,1.0,97,0.01,,,0.81,weatherlink.com 1.10,2013-09-29 04:26:00,
2013-09-28 23:41:00,74.7,74.0,29.91,ESE,118,0.0,0.0,97,0.01,,,0.81,weatherlink.com 1.10,2013-09-29 04:41:00,
2013-09-28 23:56:00,74.8,74.0,29.91,NNE,16,2.0,2.0,97,0.01,,,0.81,weatherlink.com 1.10,2013-09-29 04:56:00,